sat.trackr.live / text

‹ back to catalog

STARLINK-30597

NORAD 58078 · 2023-160D

PAYLOAD ACTIVE UNKNOWN

§ Identity

Operator
Country
US
Launch date
2023-10-18
Launch site
AFETR
Launch vehicle
Mass (kg)
RCS (m²)

Purposes: comms

External: N2YO · Heavens-Above · Gunter

§ Orbital elements

Epoch: 2026-09-17T19:49:01.820928Z

Period
94.27 min
Inclination
43.0020°
Eccentricity
0.0001531
Mean motion
15.27552397 rev/d
Perigee alt
482.1 km
Apogee alt
484.2 km
Semi-major
6,861.3 km
B*
-8.8141e-5
RAAN
72.5245°
Arg perigee
262.1978°
Mean anomaly
97.8700°
Rev number
16,233

§ Raw data

STARLINK-305971 58078U 23160D   26260.82571552 -.00002685  00000+0 -88141-4 0  99992 58078  43.0020  72.5245 0001531 262.1978  97.8700 15.27552397162331

JSON: /api/v1/satellites/58078 · /tle

For live sub-satellite position, see the globe view (requires WebGL).

§ Visibility from observer

Set your observer location to see the next 7 days of passes ≥ 10°. The values pass through the URL so the page stays shareable.

No JS? Fill the form by hand. The geolocation button needs JavaScript.